Yukon, OK

5:38 PM CST on February 10, 2016 (GMT -0600)
Oklahoma City / Page Muni

Weather History for KRCE - November, 2013

Change the Weather History Date:

Sunday, November 17, 2013

  Actual Average (KOKC) Record (KOKC)
Temperature  
Mean Temperature 57 °F 50 °F  
Max Temperature 68 °F 61 °F 80 °F (1896)
Min Temperature 44 °F 39 °F 9 °F (1894)
Degree Days  
Heating Degree Days 8 15  
Month to date heating degree days 200  
Since 1 July heating degree days 364  
Cooling Degree Days 0 0  
Month to date cooling degree days 7  
Year to date cooling degree days 2099  
Growing Degree Days 7 (Base 50)    
Moisture  
Dew Point 40 °F    
Average Humidity 51    
Maximum Humidity 88    
Minimum Humidity 24    
Precipitation  
Precipitation 0.00 in 0.06 in 1.70 in (1984)
Month to date precipitation 1.25  
Year to date precipitation 33.91  
Snow  
Snow 0.00 in 0.00 in 4.00 in (1980)
Month to date snowfall 0.1  
Since 1 July snowfall 0.1  
Snow Depth -    
Sea Level Pressure  
Sea Level Pressure 29.84 in    
Wind  
Wind Speed 15 mph (North)    
Max Wind Speed 23 mph    
Max Gust Speed 31 mph    
Visibility 9 miles    
Events      
T = Trace of Precipitation, MM = Missing Value Source: NWS Daily Summary

Daily Weather History Graph

Daily Weather History Graph

Search for Another Location

Airport or City:

Trip Planner

Search our weather history database for the weather conditions in past years. The results will help you decide how hot, cold, wet, or windy it might be!

Date:

Astronomy

Nov. 17, 2013 Rise Set
Actual Time 7:08 AM CST 5:23 PM CST
Civil Twilight 6:41 AM CST 5:50 PM CST
Nautical Twilight 6:10 AM CST 6:21 PM CST
Astronomical Twilight 5:40 AM CST 6:51 PM CST
Moon 5:41 PM CST (11/17) 7:04 AM CST (11/17)
Length of Visible Light 11h 08m
Length of Day
10h 14m
Full, 100% of the Moon is Illuminated
Nov 17
Full
Nov 25
Last Quarter
Dec 2
New
Dec 9
First Quarter
Dec 17
Full

Hourly Weather History & Observations

Time (CST) Temp. Windchill Dew Point Humidity Pressure Visibility Wind Dir Wind Speed Gust Speed Precip Events Conditions
12:15 AM 66.2 °F - 59.0 °F 78% 29.57 in 10.0 mi SSW 21.9 mph 31.1 mph N/A   Clear
12:35 AM 66.2 °F - 59.0 °F 78% 29.57 in 10.0 mi SSW 19.6 mph 27.6 mph N/A   Clear
12:55 AM 66.2 °F - 59.0 °F 78% 29.57 in 10.0 mi SSW 21.9 mph 29.9 mph N/A   Clear
1:15 AM 64.4 °F - 59.0 °F 83% 29.57 in 10.0 mi SSW 18.4 mph 28.8 mph N/A   Clear
1:35 AM 64.4 °F - 59.0 °F 83% 29.56 in 10.0 mi SSW 20.7 mph 29.9 mph N/A   Clear
1:55 AM 64.4 °F - 59.0 °F 83% 29.56 in 10.0 mi SSW 20.7 mph 28.8 mph N/A   Clear
2:15 AM 64.4 °F - 59.0 °F 83% 29.56 in 10.0 mi SSW 21.9 mph 29.9 mph N/A   Clear
2:35 AM 64.4 °F - 59.0 °F 83% 29.56 in 10.0 mi SSW 20.7 mph 27.6 mph N/A   Clear
2:55 AM 64.4 °F - 57.2 °F 77% 29.56 in 10.0 mi SSW 23.0 mph 31.1 mph N/A   Clear
3:15 AM 64.4 °F - 57.2 °F 77% 29.56 in 10.0 mi SSW 19.6 mph 29.9 mph N/A   Clear
3:35 AM 64.4 °F - 57.2 °F 77% 29.57 in 10.0 mi SSW 19.6 mph 26.5 mph N/A   Clear
3:55 AM 62.6 °F - 57.2 °F 82% 29.58 in 10.0 mi SSW 18.4 mph 24.2 mph N/A   Clear
4:15 AM 62.6 °F - 57.2 °F 82% 29.58 in 10.0 mi SSW 17.3 mph 27.6 mph N/A   Clear
4:35 AM 62.6 °F - 57.2 °F 82% 29.59 in 10.0 mi SW 15.0 mph 25.3 mph N/A   Clear
4:55 AM 62.6 °F - 57.2 °F 82% 29.60 in 10.0 mi SW 16.1 mph 20.7 mph N/A   Clear
5:15 AM 62.6 °F - 55.4 °F 77% 29.61 in 10.0 mi SW 10.4 mph 21.9 mph N/A   Clear
5:35 AM 59.0 °F - 55.4 °F 88% 29.62 in 10.0 mi SW 9.2 mph - N/A   Clear
5:55 AM 59.0 °F - 55.4 °F 88% 29.64 in 10.0 mi SW 10.4 mph - N/A   Clear
6:15 AM 59.0 °F - 55.4 °F 88% 29.64 in 10.0 mi SW 11.5 mph - N/A   Clear
6:35 AM 59.0 °F - 53.6 °F 82% 29.65 in 10.0 mi SW 12.7 mph 18.4 mph N/A   Clear
6:55 AM 59.0 °F - 50.0 °F 72% 29.67 in 10.0 mi WSW 10.4 mph - N/A   Clear
7:15 AM 59.0 °F - 48.2 °F 67% 29.70 in 10.0 mi WSW 12.7 mph 17.3 mph N/A   Clear
7:35 AM 57.2 °F - 48.2 °F 72% 29.72 in 10.0 mi West 12.7 mph 16.1 mph N/A   Clear
7:55 AM 57.2 °F - 46.4 °F 67% 29.72 in 10.0 mi WSW 11.5 mph - N/A   Clear
8:15 AM 59.0 °F - 46.4 °F 63% 29.76 in 10.0 mi WNW 10.4 mph - N/A   Clear
8:35 AM 62.6 °F - 41.0 °F 45% 29.78 in 10.0 mi NNW 17.3 mph - N/A   Clear
8:55 AM 60.8 °F - 37.4 °F 42% 29.79 in 10.0 mi NNW 15.0 mph 20.7 mph N/A   Clear
9:15 AM 59.0 °F - 35.6 °F 42% 29.81 in 10.0 mi North 15.0 mph 20.7 mph N/A   Clear
9:35 AM 60.8 °F - 35.6 °F 39% 29.82 in 10.0 mi North 12.7 mph 19.6 mph N/A   Clear
9:55 AM 62.6 °F - 35.6 °F 37% 29.82 in 10.0 mi North 12.7 mph - N/A   Clear
10:15 AM 62.6 °F - 35.6 °F 37% 29.83 in 10.0 mi North 13.8 mph - N/A   Clear
10:35 AM 64.4 °F - 35.6 °F 34% 29.85 in 10.0 mi North 11.5 mph - N/A   Clear
10:55 AM 64.4 °F - 35.6 °F 34% 29.85 in 10.0 mi NNE 10.4 mph - N/A   Clear
11:15 AM 64.4 °F - 35.6 °F 34% 29.86 in 10.0 mi NNE 6.9 mph - N/A   Clear
11:35 AM 66.2 °F - 35.6 °F 32% 29.85 in 8.0 mi NNE 8.1 mph - N/A   Clear
11:55 AM 66.2 °F - 33.8 °F 30% 29.85 in 10.0 mi North 10.4 mph - N/A   Clear
12:15 PM 68.0 °F - 33.8 °F 28% 29.86 in 10.0 mi NNE 6.9 mph - N/A   Clear
12:35 PM 68.0 °F - 32.0 °F 26% 29.86 in 10.0 mi North 9.2 mph - N/A   Clear
12:55 PM 68.0 °F - 32.0 °F 26% 29.86 in 5.0 mi North 8.1 mph 16.1 mph N/A   Haze
1:15 PM 68.0 °F - 30.2 °F 24% 29.87 in 8.0 mi North 12.7 mph - N/A   Clear
1:35 PM 68.0 °F - 32.0 °F 26% 29.88 in 9.0 mi North 11.5 mph 18.4 mph N/A   Clear
1:55 PM 68.0 °F - 32.0 °F 26% 29.88 in 9.0 mi North 12.7 mph - N/A   Clear
2:15 PM 68.0 °F - 30.2 °F 24% 29.89 in 9.0 mi NNE 13.8 mph - N/A   Clear
2:35 PM 68.0 °F - 30.2 °F 24% 29.89 in 10.0 mi NNE 15.0 mph 18.4 mph N/A   Clear
2:55 PM 68.0 °F - 32.0 °F 26% 29.90 in 6.0 mi North 11.5 mph - N/A   Haze
3:15 PM 68.0 °F - 32.0 °F 26% 29.91 in 10.0 mi NNE 10.4 mph 19.6 mph N/A   Clear
3:35 PM 68.0 °F - 32.0 °F 26% 29.91 in 8.0 mi NNE 13.8 mph 18.4 mph N/A   Clear
3:55 PM 66.2 °F - 32.0 °F 28% 29.93 in 10.0 mi North 11.5 mph - N/A   Clear
4:15 PM 66.2 °F - 32.0 °F 28% 29.94 in 10.0 mi NNE 8.1 mph - N/A   Clear
4:35 PM 66.2 °F - 32.0 °F 28% 29.94 in 10.0 mi North 8.1 mph - N/A   Clear
4:55 PM 62.6 °F - 32.0 °F 32% 29.95 in 10.0 mi NNE 5.8 mph - N/A   Clear
5:15 PM 59.0 °F - 32.0 °F 36% 29.96 in 9.0 mi NNE 8.1 mph - N/A   Clear
5:35 PM 59.0 °F - 32.0 °F 36% 29.97 in 10.0 mi NNE 9.2 mph - N/A   Clear
5:55 PM 57.2 °F - 32.0 °F 38% 29.99 in 10.0 mi NNE 6.9 mph - N/A   Clear
6:15 PM 55.4 °F - 32.0 °F 41% 30.00 in 8.0 mi NNE 8.1 mph - N/A   Clear
6:35 PM 53.6 °F - 32.0 °F 44% 30.02 in 10.0 mi NNE 8.1 mph - N/A   Clear
6:55 PM 53.6 °F - 32.0 °F 44% 30.03 in 10.0 mi NNE 6.9 mph - N/A   Clear
7:15 PM 51.8 °F - 32.0 °F 47% 30.04 in 9.0 mi NE 6.9 mph - N/A   Clear
7:35 PM 51.8 °F - 32.0 °F 47% 30.05 in 9.0 mi NE 6.9 mph - N/A   Clear
7:55 PM 50.0 °F - 32.0 °F 50% 30.06 in 9.0 mi NE 8.1 mph - N/A   Clear
8:15 PM 50.0 °F - 32.0 °F 50% 30.07 in 9.0 mi NNE 10.4 mph - N/A   Clear
8:35 PM 50.0 °F - 30.2 °F 47% 30.08 in 7.0 mi NE 8.1 mph - N/A   Clear
8:55 PM 50.0 °F - 28.4 °F 43% 30.09 in 8.0 mi NE 6.9 mph - N/A   Clear
9:15 PM 50.0 °F - 28.4 °F 43% 30.11 in 10.0 mi NE 8.1 mph - N/A   Partly Cloudy
9:35 PM 50.0 °F - 26.6 °F 40% 30.12 in 10.0 mi NE 9.2 mph - N/A   Partly Cloudy
9:55 PM 48.2 °F - 26.6 °F 43% 30.12 in 10.0 mi NE 8.1 mph - N/A   Partly Cloudy
10:15 PM 48.2 °F - 24.8 °F 40% 30.13 in 10.0 mi NE 9.2 mph - N/A   Clear
10:35 PM 48.2 °F - 24.8 °F 40% 30.14 in 6.0 mi NE 10.4 mph - N/A   Haze
10:55 PM 46.4 °F 41.5 °F 26.6 °F 46% 30.14 in 7.0 mi NE 10.4 mph - N/A   Clear
11:15 PM 46.4 °F 41.9 °F 24.8 °F 43% 30.14 in 7.0 mi NE 9.2 mph - N/A   Clear
11:35 PM 46.4 °F 42.4 °F 24.8 °F 43% 30.15 in 9.0 mi NE 8.1 mph - N/A   Partly Cloudy
11:55 PM 44.6 °F 39.2 °F 24.8 °F 46% 30.15 in 10.0 mi NNE 10.4 mph - N/A   Scattered Clouds